Погода в Коскове

Россия / Вологодская область     59°53′11″N   45°59′16″E
темп.,
°C
ветер,
м/с
пор.,
м/с
влажн.,
%
обл.,
%
осадки,
мм/ч
давл.,
гПа
погр.,
м
13 мая, чт
чт1300:00+13ююв12720 0.0 102511
03:00+12ююв22760 0.0 102512
06:00+15юв26710 0.0 1025175
09:00+22ююв24498 0.0 1024600
12:00+25ю473647 0.0 10232327
15:00+25ю463718 0.0 10222276
18:00+23юв24537 0.0 1020124
21:00+17ююв31269100 0.0 1019279
14 мая, пт
пт1400:00+15юв2479100 0.1 101888
03:00+14юв2393100 1.9 101776
06:00+15ююз3895100 3.3 1017424
09:00+17зюз468385 3.4 1018746
12:00+21зюз46484 0.0 10181486
15:00+23зюз464053 0.0 10182092
18:00+20ююз2461100 0.0 1017118
21:00+15ююз247972 0.0 101870
15 мая, сб
сб1500:00+13ююз11845 0.0 101711
03:00+12ююв11885 0.0 101810
06:00+16ююв247955 0.0 1017169
09:00+21ююв476263 0.0 1016752
12:00+25ю4747100 0.0 10141499
15:00+26ю485273 0.0 10121772
18:00+24ю5115389 0.0 10091166
21:00+16зсз2692100 1.4 1010193
16 мая, вс
вс1600:00+17ююз4138746 1.4 1011672
03:00+15ююз411945 1.4 1011399
06:00+16ююз411895 0.0 1011557
09:00+20юз610570 0.0 10111223
12:00+23юз610444 0.0 10112009
15:00+23зюз694293 0.0 10112387
18:00+21з485618 0.0 1011679
21:00+17зюз227491 0.1 101225
17 мая, пн
пн1700:00+14юз118876 0.1 101314
03:00+13зюз239788 2.8 101478
06:00+15с249021 0.1 1015308
09:00+18ссз336723 0.1 10171006
12:00+21сз34460 0.0 10171634
15:00+22зсз234177 0.0 10181879
18:00+20з2356100 0.0 101899
21:00+14сз1169100 0.0 101911